Location: Bytom
(50.3475°N, 18.9244°E)
Time: 08:20:44
(UTC+01:00)

ISS - Pass Details

Date: 24 January 2019
Orbit: 403 x 411 km, 51.6° (Epoch: 22 February)

Event Time Altitude Azimuth Distance (km) Brightness Sun altitude
Rises 17:42:42 0° 204° (SSW) 2,323 0.6 -12.5°
Reaches altitude 10° 17:45:15 10° 184° (S) 1,469 -0.8 -12.9°
Maximum altitude 17:47:30 17° 141° (SE) 1,113 -1.9 -13.3°
Enters shadow 17:48:19 16° 122° (ESE) 1,169 -1.9 -13.4°
